Location: Newark
(46.3567°N, 6.1428°E)
Time: 11:22:13
(UTC+00:00)

First-Move - Pass Details

Date: 26 September 2019
Orbit: 578 x 668 km, 97.6° (Epoch: 22 October)

Event Time Altitude Azimuth Distance (km) Brightness Sun altitude
Rises 18:32:36 0° 217° (SW) 2,810 ? -12.3°
Reaches altitude 10° 18:36:09 10° 249° (WSW) 1,903 ? -12.9°
Maximum altitude 18:37:41 12° 271° (W) 1,786 ? -13.1°
Drops below altitude 10° 18:39:13 10° 293° (WNW) 1,901 ? -13.4°
Sets 18:42:46 0° 326° (NNW) 2,804 ? -14.0°
